DECAYED

STARLINK-1625, 46131 (Decayed)

Orbit data source: Space-Track

STARLINK-1625, 46131 was a payload satellite owned by SpaceX/Seattle (US) in LEO that was launched on Tue, 18 Aug 2020 UTC via an FALCON 9 launch vehicle from the Air Force Eastern Test Range (AFETR). Payload-class satellites include a variety of spacecraft equipped with specific instruments for various scientific and technological missions. These include communications satellites like Starlink; space stations such as the ISS; scientific satellites like the Hubble; Earth observation satellites from companies like Planet Labs, Umbra, and HawkEye 360; GPS; miniature CubeSats for education and research; and military/defense satellites.

Not visible in the next 10 days
Identifier
46131, 2020-057Q
Orbit
Decayed
Country
Flag of USUS
Related business
Manufacturer
SpaceX/Seattle
Mission
Decayed Commercial Communications
Bus & Motor
STARLINK, Unknown motor
Mass
260 kg wet, ~248 kg dry
Launch date (UTC)
2020-08-18 (6 years ago)
Launch vehicle
FALCON 9
Launch site
Air Force Eastern Test Range (AFETR)
Object type
Payload
Rocket body
Debris
Shape & HBR
Box + 1 Pan, 10.1 m
Radar Cross Section
13.562 m², Large (>1 m²)

Expand to show TLE details & history
Last TLE update: 5 months ago

TLE from 5 months ago
0 STARLINK-1625
1 46131U 20057Q   26099.27111318  .12087427  12438-4  60993-3 0  9992
2 46131  53.0263  90.6018 0003524 265.7650  94.2995 16.42880097313173
Epoch: 2026-04-09T06:30Z
TLE epoch observation values (Epoch: 2026-04-09T06:30:24.178Z)
Latitude
-0.00002°
Longitude
155.47952°
Altitude
159.254 km
Speed
7.812 km/s
True Right ascension
06h 02m 24s
True Declination
0° 00' 00"
Sunlit
Object was in daylight at epoch
Visualization orbit readout
Latitude
Unknown
Longitude
Unknown
Altitude
Unknown
Speed
Unknown
Apparent Right ascension
Unknown
Apparent Declination
Unknown
Sunlit
N/A
Visualization observer readout
Local Sidereal Time
18:20:09
Azimuth
Unknown
Elevation
Unknown
Doppler factor
Unknown
Orbital elements
Apogee altitude
160.747 km
Perigee altitude
156.14 km
Semi-major axis
6,536.58 km
Eccentricity
0.00035
Inclination
53.0263°
RAAN
90.6018°
Arg. of periapsis
265.765°
True anomaly
94.33977°
Mean anomaly
94.2995°
Eccentric anomaly
94.31963°
Mean motion
4.10693 °/min
Orbital period
87.66 mins
BSTAR
0.00060993
Loading maneuver chart data...
Computing Atmospheric mass density...

Documentation

Showing up to 5 results
|